Total_Precipitation_Accumulation
0.16 0.23 0.30 0.32 0.27 0.21 0.18 0.21 0.34 0.32 0.37 0.47 0.58 0.60 0.72 0.82 0.75 0.70 0.64 0.63 0.64 0.70 0.75 0.80 0.85 0.88 0.97 0.93 1.07 1.05 1.12 1.22 1.33 1.30 1.30 1.26 1.20 1.17 1.19 1.26 1.21 1.34 1.49 1.58
0.15 0.18 0.22 0.25 0.26 0.18 0.14 0.12 0.15 0.27 0.48 0.52 0.55 0.60 0.66 0.70 0.71 0.68 0.74 0.80 0.81 0.82 0.89 0.80 0.75 0.71 0.66 0.71 0.82 0.90 1.01 0.99 1.08 1.16 1.09 1.04 1.05 1.03 1.05 1.14 1.21 1.34 1.38 1.42
0.24 0.21 0.26 0.31 0.26 0.19 0.14 0.13 0.14 0.31 0.58 0.57 0.57 0.62 0.71 0.76 0.80 0.72 0.70 0.74 0.80 0.80 0.78 0.66 0.62 0.60 0.60 0.64 0.68 0.72 0.82 0.96 1.07 1.11 1.07 0.99 1.05 1.15 1.12 1.23 1.27 1.27 1.25 1.24
0.35 0.41 0.56 0.39 0.25 0.21 0.21 0.20 0.21 0.27 0.37 0.44 0.57 0.60 0.58 0.64 0.76 0.79 0.77 0.81 0.81 0.75 0.68 0.63 0.60 0.60 0.59 0.58 0.61 0.67 0.70 0.79 0.91 0.99 0.97 0.97 0.99 1.05 1.14 1.27 1.33 1.28 1.15 1.14
0.48 0.57 0.50 0.43 0.36 0.33 0.36 0.37 0.34 0.42 0.40 0.46 0.52 0.55 0.62 0.53 0.58 0.62 0.76 0.75 0.77 0.74 0.75 0.77 0.70 0.73 0.76 0.70 0.72 0.80 0.84 0.89 0.85 0.92 1.01 1.07 1.10 1.15 1.23 1.30 1.34 1.37 1.26 1.22
0.62 0.76 0.78 0.66 0.54 0.47 0.49 0.81 0.62 0.58 0.58 0.66 0.69 0.78 0.90 0.68 0.60 0.67 0.74 0.73 0.76 0.70 0.64 0.71 0.75 0.85 0.92 0.92 0.91 0.98 1.08 1.16 1.17 1.22 1.27 1.27 1.38 1.51 1.55 1.55 1.49 1.52 1.47 1.41
0.82 0.93 0.96 0.75 0.62 0.56 0.93 1.13 0.76 0.69 0.74 0.72 0.75 0.85 0.84 0.78 0.76 0.80 0.67 0.64 0.68 0.77 0.72 0.72 0.79 0.91 1.07 1.13 1.10 1.16 1.24 1.34 1.44 1.56 1.71 1.82 1.93 1.88 1.84 1.86 1.87 1.73 1.62 1.59
1.15 1.31 1.24 0.78 0.73 1.01 1.19 0.93 0.96 0.86 0.78 0.73 0.69 0.77 0.82 0.81 0.76 0.65 0.63 0.63 0.66 0.79 0.77 0.79 0.89 1.01 1.13 1.20 1.26 1.39 1.48 1.62 1.73 1.90 1.98 2.09 2.41 2.45 2.49 2.44 2.19 1.97 1.91 1.80
1.24 1.34 1.07 0.91 1.07 1.12 1.09 1.08 1.11 1.05 0.86 0.78 0.71 0.72 0.77 0.68 0.59 0.52 0.53 0.58 0.63 0.78 0.87 0.86 0.93 1.12 1.33 1.36 1.44 1.57 1.68 1.87 2.02 2.10 2.23 2.38 2.53 2.54 2.55 2.49 2.24 2.05 2.03 1.96
1.30 1.39 1.20 1.08 1.07 1.12 1.09 1.03 1.04 1.02 1.07 1.07 0.91 0.80 0.81 0.74 0.63 0.57 0.58 0.62 0.66 0.78 0.92 1.07 1.15 1.28 1.48 1.49 1.60 1.73 1.82 1.92 2.02 2.12 2.24 2.41 2.56 2.49 2.42 2.34 2.24 2.16 2.14 2.13
1.57 1.53 1.38 1.25 1.22 1.35 1.31 1.16 1.16 1.13 1.14 1.19 0.98 0.81 0.75 0.76 0.76 0.74 0.75 0.78 0.78 0.86 1.00 1.22 1.39 1.49 1.54 1.57 1.72 1.88 1.90 1.98 2.07 2.10 2.13 2.23 2.31 2.40 2.31 2.24 2.19 2.18 2.19 2.21
1.68 1.54 1.61 1.49 1.26 1.34 1.43 1.28 1.31 1.27 1.18 1.00 0.91 0.87 0.80 0.79 0.83 0.81 0.83 0.83 0.87 0.95 1.04 1.21 1.38 1.54 1.66 1.77 1.89 2.01 2.03 1.94 1.98 2.05 2.11 2.15 2.12 2.00 1.92 1.86 1.79 1.73 1.79 1.83
1.33 1.27 1.37 1.34 1.29 1.37 1.50 1.37 1.16 1.10 1.11 1.00 0.88 0.83 0.79 0.74 0.69 0.70 0.73 0.75 0.83 0.95 1.02 1.11 1.24 1.43 1.65 1.90 2.10 2.21 2.23 2.19 2.15 2.23 2.30 2.29 2.27 2.19 2.07 1.91 1.71 1.56 1.47 1.44
1.16 1.16 1.22 1.22 1.35 1.36 1.39 1.29 1.05 0.97 0.98 0.96 0.90 0.86 0.79 0.70 0.62 0.60 0.67 0.73 0.78 0.88 1.01 1.07 1.17 1.34 1.54 1.75 1.99 2.14 2.19 2.27 2.26 2.23 2.26 2.22 2.19 2.19 2.16 2.04 1.90 1.70 1.47 1.34
1.27 1.22 1.28 1.29 1.29 1.32 1.32 1.19 1.09 0.99 0.87 0.83 0.81 0.85 0.86 0.78 0.71 0.66 0.65 0.66 0.71 0.81 0.93 1.08 1.20 1.28 1.40 1.50 1.61 1.75 1.88 2.00 2.07 2.04 2.01 2.03 2.03 1.99 1.99 1.96 1.86 1.71 1.48 1.38
1.33 1.34 1.33 1.34 1.31 1.25 1.20 1.11 1.05 0.99 0.87 0.89 0.89 0.80 0.81 0.81 0.78 0.72 0.66 0.68 0.77 0.84 0.93 1.12 1.20 1.29 1.48 1.58 1.64 1.72 1.82 1.90 1.93 1.88 1.76 1.72 1.71 1.73 1.70 1.72 1.71 1.60 1.46 1.32
1.39 1.42 1.34 1.34 1.29 1.27 1.27 1.22 1.11 1.00 0.89 0.88 0.93 0.85 0.76 0.70 0.70 0.68 0.66 0.67 0.71 0.78 0.90 1.07 1.13 1.14 1.33 1.57 1.70 1.70 1.66 1.63 1.66 1.66 1.60 1.50 1.51 1.58 1.61 1.63 1.59 1.50 1.37 1.24
1.36 1.29 1.22 1.20 1.22 1.26 1.21 1.13 1.07 1.03 0.94 0.87 0.86 0.83 0.79 0.73 0.71 0.70 0.67 0.68 0.70 0.71 0.74 0.84 0.95 1.03 1.13 1.32 1.50 1.58 1.58 1.52 1.44 1.41 1.40 1.33 1.27 1.32 1.39 1.41 1.33 1.24 1.16 1.03
1.17 1.09 1.05 1.07 1.16 1.25 1.20 1.10 1.02 0.99 0.95 0.90 0.88 0.87 0.81 0.75 0.70 0.68 0.66 0.71 0.82 0.88 0.80 0.79 0.93 0.95 1.03 1.18 1.32 1.35 1.42 1.47 1.39 1.23 1.19 1.26 1.19 1.17 1.12 1.09 1.04 0.99 0.93 0.88
1.12 1.04 1.03 1.13 1.23 1.33 1.36 1.21 1.06 1.03 0.99 0.92 0.90 0.87 0.82 0.78 0.74 0.73 0.74 0.80 0.89 0.96 0.91 0.85 0.78 0.78 0.91 1.12 1.24 1.18 1.19 1.25 1.22 1.13 1.10 1.13 1.10 1.07 0.97 0.94 0.92 0.90 0.89 0.86
1.16 1.13 1.12 1.14 1.20 1.27 1.31 1.19 1.05 1.02 0.94 0.87 0.86 0.85 0.82 0.77 0.72 0.79 0.92 0.97 0.89 0.88 0.87 0.87 0.78 0.77 0.79 0.99 1.08 1.08 1.06 1.08 1.10 1.07 1.06 1.07 1.05 1.02 0.95 0.94 0.91 0.87 0.80 0.77
1.13 1.14 1.10 1.07 1.05 1.08 1.08 1.01 0.87 0.82 0.76 0.71 0.71 0.74 0.78 0.75 0.69 0.72 0.78 0.88 0.92 0.95 0.85 0.81 0.77 0.77 0.75 0.83 0.89 1.00 1.05 0.98 0.94 0.90 0.90 0.91 0.95 0.94 0.86 0.83 0.78 0.70 0.65 0.64
0.98 0.92 0.91 0.89 0.86 0.86 0.83 0.78 0.73 0.72 0.70 0.69 0.70 0.78 0.86 0.82 0.78 0.86 0.86 0.76 0.80 0.79 0.75 0.74 0.73 0.71 0.65 0.66 0.77 0.86 0.95 0.95 0.93 0.85 0.80 0.78 0.76 0.74 0.70 0.65 0.60 0.57 0.59 0.58
0.79 0.79 0.80 0.73 0.70 0.76 0.80 0.76 0.68 0.63 0.61 0.62 0.61 0.70 0.89 0.99 0.94 0.87 0.84 0.80 0.73 0.63 0.58 0.60 0.54 0.53 0.54 0.55 0.65 0.74 0.82 0.85 0.86 0.79 0.72 0.68 0.62 0.61 0.64 0.63 0.56 0.52 0.53 0.51
0.71 0.68 0.73 0.75 0.73 0.81 0.82 0.74 0.66 0.62 0.64 0.65 0.61 0.68 0.83 0.97 1.06 0.96 0.80 0.69 0.62 0.54 0.52 0.49 0.45 0.47 0.49 0.54 0.62 0.72 0.80 0.80 0.80 0.75 0.67 0.61 0.56 0.55 0.58 0.58 0.53 0.49 0.46 0.44
0.78 0.75 0.81 0.83 0.81 0.85 0.83 0.78 0.79 0.79 0.83 0.85 0.83 0.84 0.87 0.86 0.88 0.87 0.77 0.65 0.57 0.56 0.53 0.51 0.48 0.47 0.50 0.59 0.64 0.70 0.76 0.77 0.74 0.69 0.59 0.55 0.51 0.52 0.58 0.56 0.51 0.49 0.45 0.40
0.86 0.82 0.85 0.91 0.94 0.93 0.87 0.86 0.92 0.97 1.04 1.12 1.16 1.07 1.01 0.97 0.89 0.78 0.69 0.61 0.54 0.52 0.53 0.51 0.48 0.46 0.51 0.60 0.66 0.70 0.70 0.70 0.64 0.59 0.58 0.55 0.53 0.54 0.58 0.55 0.51 0.46 0.40 0.37